SCP
0 0 0 0 0 0 0 0 1 1 1 1 1 1 2 2 2 2 2 2 3 3 4 5 6 6 7 8 9 9 8 8 7 6 5 5 5 5 6 6 7 8 8 7 5 5 5 5 5
0 0 0 0 0 0 0 0 1 1 1 1 1 2 2 2 2 2 2 2 2 3 3 5 6 6 7 8 8 9 8 8 7 7 6 5 5 5 5 5 5 6 6 5 5 5 5 5 5
0 0 0 0 0 0 0 0 1 1 1 1 1 1 1 1 1 1 2 2 2 2 3 5 6 6 7 8 8 8 8 7 7 6 6 5 4 3 3 3 3 3 3 3 4 4 6 6 6
0 1 1 1 0 0 0 0 1 1 1 1 1 1 1 1 1 1 2 2 2 2 3 5 6 6 7 7 8 7 7 7 6 6 5 5 4 3 2 2 2 2 2 2 3 4 6 6 6
0 0 1 1 0 0 0 0 1 1 1 1 1 1 1 1 2 2 2 2 2 2 3 4 6 6 6 7 7 7 6 6 5 5 5 4 4 3 3 2 2 2 2 2 2 3 5 7 7
0 0 0 0 0 0 0 0 1 1 1 1 2 1 1 1 2 2 2 2 2 2 2 3 4 5 6 7 7 7 6 5 5 4 4 4 4 4 3 3 2 2 2 2 2 3 4 6 6
1 0 0 0 0 0 0 0 0 1 1 2 2 1 1 1 2 2 3 3 2 2 2 2 3 4 5 6 7 7 6 5 4 4 3 3 4 4 4 3 2 2 1 1 2 2 3 4 4
1 0 0 0 0 0 0 0 1 1 2 3 2 2 1 1 2 3 3 4 3 3 2 2 2 2 3 4 5 6 6 5 4 3 3 3 3 4 3 2 2 1 1 1 1 1 2 3 3
1 0 0 0 0 1 0 0 1 2 4 4 3 2 2 2 2 3 4 4 3 3 2 2 2 2 2 2 3 4 4 4 4 4 3 3 3 3 2 2 1 1 1 1 1 1 2 2 2
0 0 0 0 1 1 0 0 1 2 4 4 4 3 2 2 3 4 4 4 2 2 1 1 2 2 2 2 2 3 3 4 4 4 3 3 3 2 2 2 2 1 1 1 1 1 2 2 2
0 0 0 1 1 0 0 0 1 2 3 4 5 4 3 2 3 4 5 4 3 2 1 1 1 1 1 1 2 3 3 4 4 3 3 4 3 3 2 2 2 1 1 1 1 1 2 2 2
0 0 0 1 0 0 0 0 1 2 2 3 5 5 3 2 3 4 6 5 3 2 1 1 1 1 1 1 2 2 3 3 3 3 4 4 3 2 2 2 1 1 1 1 1 1 1 2 2
0 0 0 0 0 0 0 1 2 3 3 4 5 4 3 3 3 4 6 6 4 3 2 1 1 1 1 1 2 2 2 2 1 2 2 2 2 1 1 1 1 1 1 1 1 1 1 1 1
0 0 0 0 0 0 1 1 2 3 4 5 4 4 3 3 3 4 5 5 4 3 3 2 2 3 3 2 1 1 1 1 1 1 1 1 1 1 1 1 1 1 1 1 1 1 1 1 1
0 0 0 0 0 0 1 1 2 3 5 5 4 4 3 3 3 4 4 5 4 3 3 3 4 5 5 3 2 1 1 1 1 1 1 1 1 1 1 1 1 1 1 1 1 1 1 0 0
0 0 0 0 0 0 1 2 2 3 5 5 5 5 4 3 3 3 3 3 3 3 3 3 5 7 7 4 2 1 2 2 1 1 1 1 1 1 1 1 2 2 1 1 1 1 0 0 0
0 0 0 0 0 0 1 2 2 3 4 6 7 6 5 3 3 2 2 2 3 3 4 5 7 8 7 4 3 2 2 2 1 1 1 1 1 1 1 2 2 2 1 1 1 1 0 0 0
0 0 0 0 0 1 1 2 3 3 5 7 8 7 5 4 4 3 2 3 3 5 7 8 9 8 6 5 4 4 3 2 2 2 1 1 1 1 1 2 2 1 1 1 1 1 1 0 0
0 0 0 0 0 1 2 2 4 4 5 7 8 7 5 4 4 4 4 4 5 7 9 10 10 8 7 6 6 6 5 4 3 2 2 1 1 1 2 2 2 1 1 1 1 1 1 0 0
0 0 0 0 0 1 2 3 4 5 5 6 7 7 5 4 4 6 7 8 9 10 11 12 10 9 9 8 8 7 5 4 3 2 2 2 2 2 2 2 2 1 1 1 1 1 1 0 0
0 0 0 0 1 1 2 2 3 3 4 4 5 5 4 4 6 10 13 15 15 15 15 14 12 10 9 9 8 6 4 2 1 1 1 1 2 2 2 2 1 2 1 1 1 1 1 0 0
0 0 0 0 1 1 1 2 2 2 3 3 4 4 4 5 9 14 18 19 19 17 16 15 12 9 8 7 6 4 2 1 1 1 1 1 1 1 1 1 1 1 1 1 1 1 1 0 0
0 0 0 0 0 1 1 1 1 2 2 3 3 4 4 5 9 13 17 18 17 15 15 14 10 7 5 4 3 2 1 1 1 1 1 1 1 1 1 1 1 1 1 1 1 0 0 0 0
0 0 0 0 0 0 1 1 1 2 2 2 3 4 4 4 5 8 11 14 14 12 12 11 8 6 5 4 3 2 1 1 1 1 1 1 1 1 1 1 1 1 1 0 0 0 0 0 1
0 0 0 0 0 0 0 1 1 1 1 2 3 4 3 3 2 3 6 11 13 13 11 8 6 5 5 4 3 2 1 1 1 1 1 1 1 1 1 0 0 0 0 0 0 0 0 0 0
0 0 0 0 0 0 0 1 1 1 2 2 3 3 3 2 1 2 4 8 11 13 12 9 6 6 5 5 4 2 1 1 1 1 1 1 1 1 1 0 0 0 0 0 0 0 0 0 0
0 0 0 0 0 0 1 1 1 1 2 3 3 3 2 2 1 1 2 5 8 11 11 10 7 6 6 5 3 2 2 1 1 1 1 1 1 1 0 0 0 0 0 0 0 0 0 0 0
0 0 0 0 0 0 1 1 1 1 2 2 2 2 2 2 1 1 2 3 5 8 10 9 7 6 5 4 3 2 1 1 1 1 2 1 1 1 1 0 0 1 1 0 0 0 0 0 0
0 0 0 0 0 0 0 1 1 1 1 1 2 2 2 1 1 2 2 2 3 6 8 8 6 5 4 4 3 2 1 1 1 1 1 1 1 1 1 1 1 1 1 1 0 0 0 0 0
0 0 0 0 0 0 0 0 1 1 1 1 2 2 2 1 1 2 3 3 3 5 7 7 5 4 4 4 3 3 1 1 1 1 1 1 1 1 1 1 1 1 1 1 0 0 0 0 0
Wind_Speed
4 3 2 2 4 4 2 4 1 2 3 3 7 9 8 5 4 4 2 10 12 10 8 10 13 14 14 14 14 13 13 13 13 13 13 12 11 12 12 11 10 11 10 10 10 10 10 9 8
2 3 2 3 4 1 4 2 2 3 5 7 8 8 8 6 6 9 6 10 12 11 8 10 13 14 14 14 14 13 14 13 13 12 12 11 11 10 10 10 10 10 9 9 9 8 8 7 7
2 2 2 3 1 3 3 2 3 4 4 4 5 6 5 5 7 7 9 14 11 9 7 10 15 15 14 14 14 13 13 13 12 12 11 11 10 10 9 9 9 9 8 8 8 7 7 7 7
1 2 3 2 4 5 4 3 2 4 3 4 8 7 4 3 5 9 15 15 13 8 7 10 15 14 14 14 13 13 12 12 11 11 10 10 9 9 9 9 8 8 8 7 7 6 5 6 6
3 3 3 2 5 5 3 3 2 3 2 5 9 7 4 3 12 16 15 15 13 9 7 8 13 13 13 13 13 12 11 11 10 10 9 9 8 8 8 8 8 8 7 7 6 5 5 5 6
3 3 2 3 5 4 2 3 3 4 4 6 9 7 3 6 13 14 14 12 12 11 8 8 12 13 12 12 12 12 11 10 9 9 8 8 7 7 7 8 8 8 7 6 6 4 4 4 4
3 2 2 4 4 3 3 1 4 4 5 4 7 7 5 6 10 13 13 12 11 11 9 7 7 9 11 11 12 12 11 10 9 8 7 7 7 7 6 7 7 7 6 6 5 4 3 3 3
4 2 2 3 3 3 2 1 3 4 4 6 5 9 7 9 10 11 11 10 10 8 7 7 6 5 5 6 10 11 10 10 9 8 7 6 6 6 6 6 6 6 6 5 5 4 3 2 3
2 2 4 5 3 3 1 2 1 3 5 3 3 5 9 14 13 11 10 8 7 7 5 5 6 5 5 5 8 8 9 8 8 6 6 5 2 2 3 5 6 6 6 5 5 4 4 3 3
4 3 8 6 4 3 3 1 2 3 4 4 5 7 12 13 13 13 12 10 9 8 6 5 6 6 5 5 4 3 3 3 3 3 3 2 2 1 2 4 6 6 6 5 5 4 3 2 1
5 7 7 7 6 3 3 2 2 6 3 5 9 12 12 11 11 11 11 10 9 9 7 6 5 5 5 3 4 2 2 2 2 3 3 3 2 1 1 1 2 2 3 2 2 2 1 1 1
4 7 6 7 6 3 4 3 3 4 6 9 13 15 13 12 11 11 11 9 8 8 7 7 6 5 4 4 3 3 2 2 2 2 3 3 2 1 1 1 1 1 1 1 1 1 1 1 1
4 6 6 7 6 5 4 4 4 4 7 12 13 12 11 11 10 10 10 10 9 8 7 7 6 6 5 4 3 4 3 3 3 2 3 3 3 2 2 1 1 1 1 1 1 1 1 1 1
5 6 7 7 6 4 3 3 3 5 9 12 12 12 12 11 11 10 11 10 9 9 8 7 6 6 5 4 3 3 4 3 3 3 3 3 3 2 2 2 1 1 1 1 1 2 2 1 1
3 6 8 6 4 3 2 2 4 8 10 10 11 11 11 10 10 11 12 12 11 10 8 8 7 6 6 5 4 4 4 4 3 3 3 3 3 3 3 2 1 1 1 1 1 1 1 1 1
5 4 5 8 4 3 4 5 6 9 12 11 10 10 10 9 9 9 11 10 10 9 8 8 7 7 6 5 4 4 4 4 3 3 3 3 4 4 3 2 2 1 1 1 1 1 1 1 1
3 3 6 10 5 2 3 5 5 8 12 11 10 9 10 8 7 7 9 10 10 10 9 8 7 7 6 5 4 3 3 3 3 3 3 3 3 4 3 2 2 2 2 1 1 1 1 1 1
5 5 6 8 6 2 3 5 6 7 9 11 10 10 9 10 9 9 9 9 9 9 8 8 7 7 5 4 3 3 3 2 2 2 3 3 3 3 3 2 2 2 2 2 1 1 1 1 1
6 7 10 11 7 3 4 4 5 6 7 8 9 9 9 9 8 8 8 9 8 8 7 7 6 5 4 3 3 3 2 2 1 2 3 3 3 3 3 2 2 2 2 2 2 1 1 1 1
7 8 9 8 7 3 3 4 4 5 8 9 11 10 10 8 7 8 8 9 9 9 9 8 7 6 5 4 3 3 3 2 1 1 2 3 3 3 3 3 2 2 2 2 2 2 1 0 1
9 8 9 8 6 3 1 3 3 3 2 4 6 7 8 11 11 10 10 10 9 9 9 8 7 6 5 5 3 3 3 2 1 1 1 1 2 3 3 3 3 2 2 2 1 2 3 1 0
9 9 8 7 3 4 1 2 6 3 2 2 4 4 6 9 10 10 10 10 10 10 9 8 7 7 5 5 5 5 4 3 3 2 2 1 2 2 3 3 3 3 2 2 2 2 2 3 1
9 6 4 4 3 2 2 1 6 1 1 2 3 5 7 8 9 10 10 11 10 9 8 7 7 6 6 6 6 5 3 3 2 2 2 1 1 2 3 3 3 3 2 2 2 2 2 2 2
6 2 3 3 3 1 4 3 5 2 3 1 2 4 5 6 7 7 7 8 7 7 7 7 7 6 6 6 5 6 5 4 4 3 2 2 1 1 1 2 2 2 2 3 3 3 3 2 2
1 3 3 4 3 4 2 2 6 4 3 4 4 4 4 5 6 6 7 7 7 7 7 7 7 6 6 6 5 5 6 5 5 4 4 3 2 2 3 2 2 2 2 3 2 2 3 3 3
4 8 7 5 5 4 2 3 5 3 1 3 4 5 6 5 5 6 6 6 7 7 6 7 7 7 6 6 5 5 5 4 3 4 4 4 3 3 4 3 3 3 3 3 3 2 2 2 3
4 4 7 6 2 1 2 2 4 2 3 4 5 5 5 5 5 6 6 5 5 6 6 7 7 7 7 7 6 5 5 4 4 4 3 3 3 3 4 4 4 3 3 3 3 2 2 2 3
5 5 5 5 4 3 3 3 4 2 1 3 4 5 5 4 4 4 6 6 5 5 4 5 5 5 5 5 5 5 5 5 4 4 3 3 3 3 4 4 4 4 4 3 3 2 3 3 2
1 2 4 3 4 5 3 5 4 4 4 5 6 6 6 6 5 4 4 5 5 4 4 4 4 4 4 4 4 4 4 4 4 4 4 4 3 4 4 4 4 4 4 4 4 3 4 4 3
4 5 7 5 4 4 4 5 1 4 3 5 5 5 4 5 5 5 4 4 4 4 4 3 3 4 3 3 3 3 3 3 3 3 4 4 3 3 4 4 4 4 4 4 4 4 4 4 4
Wind_Direction
191 181 149 68 50 40 285 259 191 63 52 69 87 88 88 71 102 131 147 141 135 139 143 135 129 125 124 124 122 119 117 115 113 112 113 114 116 118 119 119 118 118 118 118 119 118 118 115 116
183 178 85 56 77 19 279 244 110 122 137 124 92 90 82 71 95 116 126 140 138 137 139 137 132 128 126 126 124 123 122 121 120 118 119 119 121 122 123 122 122 121 120 120 121 119 117 113 119
217 181 96 75 124 196 239 226 162 125 133 118 96 73 86 115 123 133 145 141 134 133 138 140 136 133 132 130 128 127 127 127 126 125 125 125 125 127 128 128 129 129 127 124 125 123 118 115 122
109 56 49 68 255 246 217 225 167 117 87 90 102 76 62 100 130 131 138 139 134 136 140 141 137 137 137 136 134 132 131 132 131 131 130 129 129 135 136 136 136 135 134 130 129 124 122 124 129
74 76 43 314 264 256 229 214 159 128 113 106 101 96 66 54 113 126 136 139 138 141 143 140 138 139 140 140 139 137 135 134 134 134 134 134 134 139 144 143 143 141 138 135 133 126 122 126 136
52 72 73 279 277 284 267 207 139 106 109 104 106 110 105 120 126 135 139 141 140 142 142 141 146 146 145 144 143 143 142 141 139 138 139 140 141 143 149 150 151 150 146 143 143 135 124 121 129
127 106 227 250 282 294 250 209 136 126 127 135 128 111 134 147 143 140 137 135 137 140 142 145 151 150 149 148 148 149 149 148 145 142 145 149 150 151 155 158 154 151 149 151 155 151 148 153 154
158 112 283 273 275 277 267 63 133 127 120 129 120 134 163 170 145 131 128 131 133 138 145 149 151 150 149 149 154 154 153 152 149 146 149 154 159 160 162 166 162 158 159 161 166 166 169 178 178
128 91 247 239 234 261 305 56 64 69 95 93 91 139 152 147 135 129 125 125 132 139 145 145 150 151 154 157 162 159 156 154 152 153 158 154 153 159 167 175 170 170 172 173 179 186 190 197 195
136 182 236 230 220 248 291 234 149 86 83 74 66 96 128 140 138 141 144 146 148 150 153 148 151 156 158 159 145 152 154 151 150 156 155 144 148 166 169 181 179 178 180 188 195 200 196 199 174
189 214 243 256 245 236 262 241 147 132 134 165 152 147 148 145 148 152 152 155 157 157 155 154 154 154 154 146 146 149 148 147 152 154 149 143 144 143 138 144 164 165 171 182 205 216 187 176 167
234 251 247 255 265 250 232 185 148 169 184 169 156 156 155 157 161 159 153 154 153 149 154 153 155 151 153 146 153 154 153 153 157 154 142 137 137 139 141 133 142 148 143 156 184 193 189 179 179
276 273 274 271 275 248 230 203 170 182 156 149 147 150 161 158 158 154 148 150 150 149 150 153 153 157 158 151 160 153 156 159 164 150 148 146 140 143 142 150 160 167 158 168 176 180 177 170 152
255 278 292 281 270 252 206 225 145 185 154 150 153 160 164 162 161 154 148 152 157 158 157 153 148 157 153 154 162 153 155 158 154 152 156 147 142 144 142 141 150 155 172 175 167 162 163 157 137
301 318 311 286 268 249 142 292 206 180 155 159 168 170 165 168 166 163 162 161 164 163 157 154 149 146 145 146 152 148 153 151 154 158 159 151 147 147 144 134 137 166 152 140 128 117 113 124 113
345 336 299 286 272 251 135 247 235 173 160 171 176 171 170 175 170 167 165 162 163 156 152 156 154 149 150 146 143 146 152 150 156 157 157 155 152 148 137 136 150 152 122 122 122 105 98 94 108
350 280 276 291 279 241 173 229 226 184 167 173 175 172 175 174 170 166 165 166 161 157 155 154 150 152 153 145 138 137 140 146 159 152 152 156 154 151 140 141 151 139 117 106 126 106 130 134 143
258 271 277 276 288 302 249 242 205 184 171 169 169 176 181 175 176 174 169 165 158 153 151 151 147 150 147 137 122 116 118 139 149 153 156 152 151 142 130 131 140 128 109 96 92 95 96 132 164
235 267 277 276 275 283 253 240 210 185 172 174 176 176 178 179 173 165 167 161 153 145 143 143 142 151 146 143 145 143 149 152 155 167 161 153 147 135 127 132 132 120 126 140 135 117 93 47 96
250 263 273 285 281 254 263 263 219 186 190 181 182 181 174 163 159 162 161 160 158 157 155 153 153 154 156 158 161 151 142 141 146 133 138 152 152 153 147 141 143 137 128 125 123 118 108 20 105
259 241 250 260 289 309 303 316 288 236 216 183 179 178 172 168 165 164 165 164 163 165 167 163 159 153 153 146 128 111 89 71 77 105 149 168 157 156 148 147 145 144 140 148 162 145 146 169 293
256 246 239 249 256 271 208 249 278 237 223 192 178 177 176 174 165 165 166 165 169 172 167 159 158 153 149 143 145 150 155 167 191 177 171 169 158 157 153 145 141 146 148 159 186 170 166 155 173
238 245 239 242 214 277 341 157 278 301 235 254 197 179 172 172 165 168 171 169 168 165 161 157 154 154 157 155 159 159 162 172 162 146 149 168 175 166 162 153 149 155 159 169 179 176 169 160 166
232 298 342 22 72 259 239 179 271 238 219 217 193 176 159 154 153 157 158 153 155 155 155 155 157 162 163 161 163 165 165 164 156 156 165 180 181 165 176 171 165 170 171 182 189 183 170 168 163
161 96 14 346 355 254 241 160 244 231 208 175 167 159 138 130 136 139 146 150 152 155 162 164 165 168 171 170 173 172 168 168 174 178 179 179 183 194 206 191 183 184 190 191 185 180 178 170 167
206 154 167 202 223 264 309 211 254 252 195 124 134 134 119 123 134 139 147 151 153 159 170 170 171 175 177 177 178 174 169 172 182 186 181 185 193 201 198 192 195 198 191 188 176 172 186 174 180
184 192 175 152 176 202 266 276 300 2 59 81 102 115 122 135 142 144 142 144 149 152 171 175 175 178 180 180 174 173 177 178 186 186 181 186 195 196 189 191 194 198 191 184 172 178 191 180 190
162 160 103 126 161 221 259 243 239 244 164 142 139 148 156 148 140 140 139 146 153 155 166 168 166 172 176 176 178 176 179 180 180 173 185 190 194 191 185 194 195 196 191 187 183 186 190 180 194
146 119 125 136 161 163 218 255 221 199 183 174 172 166 166 160 152 142 145 149 147 141 142 150 158 155 161 169 169 165 168 174 172 174 186 189 192 192 195 200 197 196 195 191 185 194 187 186 196
176 176 157 159 206 175 178 253 227 158 168 177 170 160 160 153 146 142 141 136 129 131 142 140 158 156 163 165 161 165 171 169 169 185 189 184 189 199 202 199 193 196 196 190 186 199 196 190 194